Wind_Speed
14 10 10 9 2 4 7 7 1 6 4 11 8 9 15 9 6 4 3 9 16 40 41 40 35 34 31 28 26 25 26 23 22 21 20 18 20 18 16 16 17 14 17 20 17 18 19 19 16
10 11 13 3 4 8 7 6 14 19 6 4 14 8 4 8 21 14 11 11 23 41 41 39 36 34 31 28 27 26 23 24 23 22 21 20 19 18 18 16 12 18 21 20 20 21 22 22 20
10 15 7 4 6 15 9 7 19 4 17 5 2 9 9 5 15 11 11 15 32 43 41 39 37 35 33 32 30 26 20 19 20 21 21 20 19 16 15 16 21 20 25 23 22 23 21 20 22
9 9 3 5 20 9 10 9 6 5 8 11 12 7 6 13 7 13 18 21 40 46 42 39 38 35 35 34 31 24 19 16 17 23 21 17 16 17 18 22 23 27 23 23 21 18 18 18 19
14 4 5 7 19 11 8 9 10 4 4 5 21 10 6 8 12 11 13 28 44 47 43 41 38 36 36 35 29 24 18 15 18 22 23 20 21 22 23 26 25 26 22 21 21 20 16 17 19
8 3 5 15 26 9 11 25 9 9 14 5 3 8 13 25 22 14 15 30 42 47 44 42 37 38 36 33 28 23 18 16 20 23 24 23 20 22 23 28 29 25 21 20 19 17 16 17 19
5 3 15 21 21 7 11 20 12 23 19 15 13 4 6 15 19 19 21 33 42 45 44 41 39 39 36 33 29 22 18 17 21 24 24 22 21 23 27 28 29 24 22 20 19 18 17 18 16
11 3 12 17 18 24 9 12 16 28 24 24 22 8 8 14 18 22 27 36 38 44 44 40 40 39 36 33 28 23 19 17 25 26 24 22 21 23 31 28 27 24 23 21 21 17 20 20 19
15 7 20 30 17 15 4 5 13 12 19 12 16 20 15 20 23 24 29 37 35 43 45 42 42 41 37 34 29 24 19 19 26 26 25 23 23 26 27 28 27 25 25 22 19 18 23 22 20
16 13 28 9 17 8 8 12 8 6 12 10 14 19 24 17 29 33 39 44 40 47 45 44 44 41 38 34 31 27 24 26 29 28 27 25 27 28 26 28 26 25 24 21 18 15 20 20 17
17 30 23 12 5 14 15 4 13 5 9 13 16 23 28 25 33 39 41 50 49 52 47 45 47 43 41 37 34 30 27 28 30 29 28 27 30 31 27 29 29 27 27 23 18 17 20 16 13
24 31 32 35 24 10 5 6 11 20 14 6 14 16 21 28 35 40 45 45 47 49 48 49 47 44 41 37 35 32 30 31 31 31 30 30 32 32 30 30 33 30 22 21 17 20 18 14 12
21 25 32 33 18 25 30 25 18 28 24 33 30 22 14 24 34 37 44 49 52 50 50 49 47 46 43 38 36 33 29 30 31 33 33 32 32 33 31 29 29 26 22 19 19 19 18 15 16
18 26 23 19 24 30 21 18 12 46 28 32 25 22 21 22 31 39 40 45 51 51 51 48 49 48 44 40 36 33 30 29 32 33 34 33 33 33 33 32 28 26 22 21 21 19 18 20 18
20 19 19 18 22 19 19 21 32 33 16 19 29 33 31 25 27 40 42 44 51 52 51 52 52 50 45 40 37 34 30 30 31 33 35 34 31 32 34 32 30 27 24 23 22 21 22 21 19
15 14 16 19 12 8 20 32 26 26 37 36 27 22 27 33 33 36 43 45 49 51 53 53 53 51 48 41 38 36 32 29 29 29 34 34 31 32 34 32 31 29 26 25 23 22 23 21 19
4 10 15 16 14 18 16 17 18 39 26 29 36 36 33 26 35 36 44 44 47 51 52 54 53 53 48 43 39 35 34 31 27 27 31 34 32 33 34 33 32 31 29 26 24 23 20 22 21
12 13 13 17 10 23 21 24 18 33 24 23 34 34 36 38 36 37 43 45 45 51 53 54 52 53 47 48 44 39 38 34 28 26 27 34 32 28 32 34 33 32 31 29 26 23 23 20 21
11 12 13 20 23 17 21 23 22 18 25 25 22 24 32 34 39 32 37 43 45 50 50 53 54 50 52 51 50 45 44 37 33 29 28 33 32 29 31 36 34 33 32 30 27 24 22 25 23
18 15 18 18 19 14 16 22 21 16 18 23 27 24 15 23 35 35 38 41 46 49 52 50 53 54 53 54 51 46 44 40 35 32 30 31 32 30 31 37 37 36 34 31 28 26 28 25 26
17 11 13 18 21 14 17 20 18 23 19 23 29 32 25 20 30 40 36 44 45 50 50 52 52 52 54 53 50 47 45 43 39 34 32 32 32 32 32 36 37 36 33 31 29 26 25 28 27
11 10 16 16 14 7 8 8 11 13 18 18 23 32 33 29 26 35 39 40 42 48 46 51 51 50 51 51 49 48 48 46 41 36 35 37 35 33 33 34 36 35 33 31 29 26 23 23 26
17 20 20 21 17 15 17 6 7 15 16 19 19 27 34 32 30 32 36 43 44 44 49 50 43 49 51 48 49 47 44 42 44 41 40 40 38 33 33 34 34 34 33 31 28 27 25 24 23
14 15 20 16 9 10 22 10 9 15 16 11 16 25 31 33 34 32 35 37 43 40 47 45 46 47 48 48 46 44 42 43 42 43 40 42 39 36 35 37 36 34 33 31 28 26 24 23 22
9 11 4 4 2 6 4 9 16 10 20 18 12 20 29 41 31 34 37 38 44 46 45 44 43 47 46 45 45 44 42 40 41 43 42 46 44 41 39 39 39 37 32 30 27 26 25 24 23
16 6 6 6 4 12 10 7 1 14 20 24 33 19 24 30 30 35 37 38 43 46 46 44 44 45 44 45 44 43 41 42 42 43 42 43 44 43 41 40 38 35 32 30 28 27 25 24 23
7 10 14 6 9 6 5 4 5 22 18 13 11 14 18 26 30 37 40 42 43 44 45 45 43 44 45 45 45 46 43 42 45 44 42 42 43 40 37 36 35 34 30 29 28 28 27 25 24
8 8 8 3 4 6 7 5 9 24 24 21 15 12 23 27 30 32 36 39 39 41 41 42 44 49 47 47 47 48 43 42 42 42 42 40 42 40 37 35 33 33 32 31 30 28 27 26 25
8 8 5 5 4 3 5 4 13 22 21 20 19 16 21 25 29 31 36 39 39 36 36 41 42 47 47 49 49 49 45 42 40 39 43 38 39 39 38 38 36 36 35 32 31 30 29 29 27
13 12 12 2 4 4 4 2 19 24 24 24 4 9 11 21 22 29 34 36 38 36 38 43 42 44 46 50 47 48 43 41 39 38 41 37 37 39 40 33 37 35 33 32 32 32 32 30 29
Wind_Direction
223 203 178 162 185 234 236 231 312 210 211 204 162 187 204 204 172 205 340 194 190 177 175 174 173 171 171 172 169 166 165 163 160 158 164 162 157 153 150 144 132 128 121 121 128 120 126 121 120
207 186 171 170 218 230 227 220 225 219 188 138 211 204 204 229 233 256 267 216 182 178 175 175 171 169 167 169 168 167 164 158 162 161 164 163 160 162 163 166 152 134 133 130 128 124 119 116 114
197 175 163 202 228 232 245 201 239 252 237 242 173 216 229 217 234 236 250 206 177 179 176 174 169 166 170 170 169 169 173 168 169 161 157 151 151 152 151 144 144 135 137 134 132 126 122 122 120
178 178 235 235 236 244 233 199 243 262 242 239 249 272 234 205 206 221 230 199 178 180 177 172 169 170 173 175 175 168 171 169 168 156 157 165 147 138 142 138 135 139 139 139 139 142 134 133 127
183 193 234 244 241 242 222 224 220 191 218 228 220 233 244 226 231 241 216 190 179 179 177 171 170 174 179 180 175 173 171 166 158 149 149 146 157 148 146 139 141 140 141 149 135 138 145 139 137
202 210 231 241 240 229 226 234 234 245 232 211 198 247 240 242 253 252 210 187 181 178 174 170 173 180 183 181 179 178 172 162 154 153 147 156 158 149 143 141 146 143 145 150 156 142 142 142 142
250 215 239 251 251 241 225 231 211 241 245 227 219 218 245 227 226 227 201 181 180 179 172 170 178 185 184 183 183 181 172 166 157 150 156 167 152 146 138 138 145 143 146 151 142 138 138 141 140
213 240 255 243 239 255 217 194 224 222 246 255 228 223 233 228 212 194 190 179 180 177 174 175 182 186 185 184 185 182 176 162 152 157 161 162 155 141 136 143 145 147 147 149 138 132 128 129 133
218 235 250 246 236 235 191 197 211 235 222 216 193 220 221 220 200 184 175 180 182 178 176 180 186 188 185 183 183 182 174 161 154 157 161 163 150 143 146 147 149 154 153 145 150 140 137 137 134
210 226 243 264 238 252 221 212 197 177 207 228 207 212 216 212 191 181 175 181 182 181 180 184 189 189 186 184 184 178 167 159 160 161 164 163 154 143 146 156 151 157 166 163 155 150 139 138 137
223 235 236 248 317 270 242 238 227 207 228 213 215 216 214 199 190 184 187 182 183 186 182 186 187 190 188 186 182 179 173 166 165 164 164 163 155 149 153 159 161 166 175 159 156 152 146 143 133
246 248 251 262 267 291 279 277 252 240 225 209 217 218 215 195 195 187 186 183 183 186 184 189 189 190 193 190 187 185 176 172 167 168 169 164 157 155 161 168 172 174 170 159 160 150 150 147 137
254 260 266 265 271 268 266 261 267 262 244 249 254 256 248 213 205 198 193 190 186 186 188 192 194 193 192 191 190 186 183 177 176 171 171 169 165 161 166 171 179 171 164 168 162 157 155 150 142
288 300 293 291 291 274 271 268 255 252 255 252 241 238 240 234 215 206 197 192 190 188 192 194 193 194 195 192 192 189 189 182 180 173 173 171 170 168 170 171 176 173 170 166 163 161 157 149 145
273 279 287 280 288 266 282 265 242 248 261 250 241 243 242 235 220 214 203 193 193 194 195 196 198 195 196 192 194 193 190 189 185 177 174 174 173 174 174 175 171 177 172 171 167 159 156 153 148
272 271 274 279 273 286 243 255 249 254 238 242 245 240 231 228 228 219 209 199 195 193 197 199 199 197 193 191 196 190 191 193 194 187 179 177 178 176 175 179 179 177 175 174 169 163 160 159 154
284 283 303 298 312 285 249 262 274 244 252 245 239 235 241 235 229 225 214 203 197 193 196 197 199 195 194 194 195 193 194 192 197 194 186 180 184 179 177 180 178 178 178 176 174 167 172 163 156
308 314 302 295 291 312 301 285 285 302 322 276 239 225 225 227 227 223 216 211 201 197 195 197 200 196 194 196 192 191 193 191 195 195 192 184 181 185 182 180 180 180 179 177 177 177 170 170 164
284 283 273 278 284 277 274 277 279 282 282 287 301 224 221 224 225 219 213 207 208 199 193 200 199 194 196 194 191 191 192 192 191 193 192 188 182 187 186 185 181 182 183 182 182 179 178 170 171
300 286 277 286 277 292 278 270 281 277 271 255 270 282 282 224 223 212 211 209 211 209 199 194 201 201 199 198 199 197 193 192 192 192 191 190 187 188 189 188 184 186 185 187 187 189 180 178 175
294 278 269 269 288 297 277 276 272 269 263 261 240 259 268 272 229 222 210 209 202 200 198 191 202 201 201 200 199 193 191 189 191 191 190 191 192 192 192 193 191 190 190 191 194 197 200 185 180
298 281 284 287 303 292 338 294 272 256 249 243 233 231 251 257 251 226 217 209 197 204 202 195 201 200 202 205 200 200 198 193 194 193 192 190 192 195 195 194 196 197 196 199 201 204 208 207 191
291 287 285 285 275 282 268 258 268 246 269 238 231 223 231 239 237 226 210 209 206 198 203 194 204 200 201 206 206 203 204 200 196 193 193 191 189 194 194 195 196 200 202 204 207 207 209 209 209
303 291 283 270 254 263 254 210 246 232 232 232 215 216 214 224 225 227 227 208 203 194 199 206 202 202 203 205 208 209 207 205 201 197 195 192 192 191 195 195 197 200 204 207 210 214 214 210 213
318 311 320 349 196 242 253 193 234 220 224 246 240 215 207 226 215 215 215 205 200 194 196 202 202 203 206 206 209 210 211 212 211 204 198 194 194 194 194 196 198 202 205 210 213 213 212 211 214
308 328 309 303 302 290 269 223 318 243 238 229 236 230 226 223 210 206 211 214 204 205 199 200 202 205 208 208 209 209 211 212 216 211 203 201 201 197 195 196 200 203 206 209 211 211 212 212 213
321 347 299 277 266 255 251 350 58 355 360 316 340 303 217 207 199 205 210 214 214 203 200 204 204 205 209 210 210 209 210 214 216 213 209 207 204 202 200 198 199 202 206 210 211 212 212 212 213
291 334 327 333 299 311 316 76 16 354 337 324 316 281 235 222 210 201 203 205 207 207 204 205 209 207 209 208 210 210 212 214 217 217 210 208 206 204 200 200 200 201 203 207 209 210 210 212 214
346 340 340 265 261 295 311 88 12 345 327 313 296 247 238 218 211 208 206 209 210 209 209 210 206 205 208 209 207 208 212 213 214 219 212 210 208 210 199 200 200 203 202 202 208 208 209 211 213
43 350 342 285 334 326 272 323 6 343 337 338 37 104 173 218 213 215 212 200 202 206 204 203 202 205 207 206 208 207 213 214 213 219 213 212 207 212 207 199 201 205 204 204 207 207 207 212 213
Height
1502 1505 1507 1509 1515 1510 1501 1494 1491 1486 1486 1480 1480 1483 1481 1481 1483 1488 1478 1479 1483 1487 1492 1497 1502 1508 1513 1517 1521 1524 1528 1531 1535 1538 1541 1543 1545 1547 1549 1551 1554 1555 1558 1560 1561 1563 1563 1564 1566
1501 1503 1507 1508 1511 1505 1490 1490 1484 1472 1476 1476 1479 1480 1481 1478 1477 1477 1477 1479 1482 1487 1492 1497 1501 1507 1512 1516 1521 1524 1527 1531 1534 1538 1540 1542 1544 1547 1549 1550 1553 1556 1558 1561 1562 1564 1565 1566 1568
1499 1501 1505 1504 1495 1480 1479 1489 1478 1479 1480 1478 1478 1477 1477 1475 1474 1475 1474 1476 1481 1487 1491 1497 1502 1507 1512 1515 1519 1523 1527 1530 1532 1536 1539 1542 1544 1546 1548 1551 1554 1557 1559 1562 1564 1566 1567 1569 1570
1500 1503 1503 1498 1481 1478 1475 1477 1477 1477 1477 1478 1479 1477 1473 1470 1471 1471 1472 1475 1479 1485 1490 1497 1502 1507 1511 1514 1518 1522 1526 1529 1532 1535 1538 1541 1544 1547 1549 1552 1555 1558 1561 1563 1565 1567 1569 1570 1572
1500 1500 1497 1489 1472 1468 1474 1472 1471 1472 1473 1472 1473 1470 1469 1467 1468 1469 1470 1472 1475 1482 1489 1496 1502 1506 1511 1514 1518 1522 1525 1528 1531 1535 1538 1541 1543 1546 1548 1553 1556 1559 1562 1564 1565 1567 1569 1572 1574
1500 1496 1495 1473 1460 1465 1468 1466 1471 1470 1468 1470 1472 1472 1465 1464 1465 1467 1469 1471 1476 1481 1488 1495 1501 1505 1509 1514 1518 1521 1524 1528 1531 1535 1538 1541 1543 1547 1549 1553 1558 1561 1563 1565 1566 1568 1569 1572 1575
1496 1494 1469 1459 1453 1461 1456 1458 1464 1462 1461 1465 1464 1465 1461 1459 1461 1465 1467 1471 1475 1482 1488 1493 1500 1505 1509 1514 1518 1521 1524 1526 1530 1535 1539 1541 1544 1547 1550 1554 1559 1562 1564 1566 1567 1569 1571 1574 1577
1488 1490 1470 1450 1449 1439 1449 1449 1451 1455 1452 1455 1460 1455 1459 1458 1458 1461 1466 1471 1475 1481 1487 1493 1498 1503 1508 1513 1517 1520 1523 1526 1530 1534 1539 1542 1544 1548 1552 1557 1560 1563 1565 1567 1569 1570 1574 1576 1579
1487 1481 1455 1439 1451 1448 1445 1447 1445 1447 1450 1448 1448 1449 1451 1453 1453 1458 1464 1471 1475 1481 1485 1490 1495 1500 1505 1510 1515 1519 1522 1526 1531 1534 1538 1542 1545 1549 1554 1558 1561 1564 1566 1568 1570 1573 1575 1578 1581
1473 1464 1433 1442 1447 1445 1445 1445 1443 1443 1444 1444 1442 1445 1447 1448 1448 1452 1457 1464 1471 1475 1481 1486 1491 1497 1503 1508 1513 1517 1520 1524 1529 1533 1537 1541 1545 1551 1555 1559 1562 1564 1567 1568 1572 1576 1578 1580 1583
1460 1439 1436 1439 1441 1445 1443 1442 1442 1439 1438 1436 1438 1438 1441 1442 1446 1448 1452 1455 1461 1468 1476 1481 1487 1494 1499 1504 1509 1514 1517 1522 1527 1532 1536 1540 1545 1550 1555 1558 1561 1564 1566 1569 1573 1577 1580 1582 1584
1456 1440 1444 1440 1444 1444 1443 1442 1437 1434 1429 1432 1433 1435 1437 1438 1441 1444 1448 1453 1461 1468 1473 1477 1483 1490 1496 1502 1506 1511 1516 1520 1525 1530 1535 1539 1544 1549 1554 1557 1558 1563 1569 1571 1574 1578 1581 1584 1586
1447 1439 1442 1440 1440 1440 1441 1436 1437 1422 1426 1430 1431 1432 1434 1438 1439 1442 1445 1448 1455 1462 1469 1474 1480 1486 1492 1499 1503 1508 1514 1519 1523 1527 1533 1539 1543 1548 1552 1557 1560 1565 1569 1573 1575 1579 1582 1584 1587
1449 1444 1439 1438 1436 1435 1435 1431 1433 1401 1425 1425 1426 1427 1430 1434 1435 1438 1442 1445 1449 1457 1464 1471 1476 1482 1488 1495 1501 1506 1512 1517 1521 1525 1530 1536 1541 1546 1552 1556 1560 1565 1569 1573 1576 1579 1582 1585 1588
1445 1441 1434 1434 1433 1432 1433 1420 1410 1413 1420 1419 1420 1422 1425 1428 1431 1431 1436 1440 1443 1452 1459 1465 1471 1478 1485 1492 1499 1504 1510 1515 1520 1523 1529 1534 1540 1545 1550 1555 1560 1565 1569 1573 1576 1579 1582 1585 1588
1443 1441 1435 1427 1428 1427 1426 1400 1396 1410 1414 1411 1415 1416 1417 1418 1423 1428 1431 1436 1442 1447 1453 1462 1468 1473 1481 1489 1496 1502 1507 1512 1517 1522 1527 1532 1538 1543 1549 1554 1560 1564 1569 1573 1576 1580 1582 1586 1589
1443 1441 1439 1428 1428 1421 1419 1399 1399 1404 1406 1404 1406 1409 1412 1413 1416 1419 1426 1429 1436 1442 1447 1456 1462 1469 1477 1485 1493 1499 1504 1509 1515 1520 1525 1530 1536 1542 1547 1553 1558 1563 1568 1572 1576 1579 1584 1586 1589
1458 1456 1448 1446 1432 1424 1422 1408 1404 1403 1406 1399 1393 1397 1402 1405 1408 1412 1418 1425 1430 1437 1443 1449 1458 1464 1472 1481 1488 1494 1501 1507 1512 1518 1522 1527 1533 1539 1545 1551 1556 1562 1567 1571 1575 1579 1582 1587 1589
1455 1454 1453 1441 1427 1429 1418 1409 1401 1405 1400 1399 1397 1391 1392 1394 1404 1408 1412 1419 1425 1432 1439 1444 1451 1460 1466 1473 1479 1487 1494 1502 1508 1514 1519 1524 1531 1536 1542 1549 1555 1561 1565 1570 1574 1578 1581 1584 1588
1449 1448 1444 1433 1423 1422 1413 1401 1395 1398 1395 1393 1394 1393 1392 1391 1397 1400 1404 1411 1418 1424 1433 1439 1444 1453 1461 1467 1475 1484 1490 1498 1505 1510 1517 1523 1529 1535 1540 1546 1551 1557 1563 1568 1572 1576 1578 1583 1587
1442 1442 1437 1430 1419 1417 1409 1400 1393 1385 1388 1388 1387 1387 1390 1389 1391 1393 1397 1403 1410 1417 1425 1432 1438 1447 1455 1463 1471 1479 1486 1493 1501 1508 1514 1521 1527 1532 1537 1543 1548 1555 1561 1565 1570 1574 1577 1580 1585
1440 1428 1423 1421 1420 1421 1408 1397 1383 1376 1373 1376 1377 1379 1381 1385 1386 1388 1391 1398 1403 1412 1422 1428 1434 1443 1450 1458 1466 1473 1479 1487 1495 1502 1509 1515 1523 1529 1535 1542 1548 1554 1559 1563 1568 1573 1577 1581 1583
1435 1425 1419 1417 1418 1420 1405 1412 1385 1380 1368 1364 1364 1368 1370 1377 1379 1382 1384 1391 1400 1407 1417 1421 1431 1440 1446 1453 1462 1470 1479 1487 1489 1499 1505 1512 1519 1526 1533 1539 1545 1551 1557 1562 1567 1570 1575 1580 1584
1428 1422 1411 1406 1407 1410 1389 1399 1375 1370 1359 1352 1352 1356 1361 1365 1370 1376 1380 1388 1396 1402 1411 1418 1426 1435 1442 1450 1458 1468 1476 1482 1488 1495 1502 1509 1516 1522 1529 1535 1541 1548 1554 1560 1565 1570 1574 1579 1583
1429 1424 1424 1428 1413 1407 1376 1389 1366 1351 1350 1348 1349 1349 1353 1356 1363 1369 1376 1382 1390 1397 1405 1413 1422 1430 1438 1447 1455 1463 1472 1478 1485 1490 1497 1503 1509 1515 1522 1530 1536 1543 1551 1558 1563 1567 1572 1577 1581
1432 1427 1421 1414 1398 1379 1367 1370 1358 1349 1344 1343 1343 1347 1350 1352 1357 1363 1371 1377 1383 1393 1401 1409 1418 1426 1434 1443 1452 1461 1468 1474 1481 1487 1494 1500 1505 1510 1518 1525 1533 1541 1548 1554 1560 1565 1570 1574 1579
1429 1427 1421 1409 1398 1393 1359 1349 1344 1358 1355 1352 1351 1348 1343 1346 1350 1355 1364 1371 1377 1387 1397 1405 1414 1422 1430 1439 1448 1456 1464 1469 1475 1483 1491 1497 1504 1510 1518 1524 1531 1538 1545 1551 1556 1561 1566 1571 1576
1438 1431 1422 1423 1413 1391 1350 1356 1372 1369 1364 1353 1350 1346 1341 1342 1347 1353 1360 1367 1373 1381 1391 1402 1410 1416 1425 1434 1442 1451 1459 1465 1472 1479 1485 1494 1501 1507 1514 1522 1528 1534 1540 1546 1552 1557 1563 1568 1573
1433 1434 1426 1420 1411 1401 1379 1366 1383 1383 1371 1357 1344 1337 1335 1336 1342 1348 1355 1363 1372 1380 1389 1396 1405 1413 1420 1428 1437 1445 1454 1461 1467 1473 1480 1489 1497 1503 1511 1517 1523 1529 1535 1541 1548 1553 1559 1564 1568
1449 1445 1433 1422 1406 1398 1390 1376 1381 1381 1369 1351 1332 1331 1332 1332 1338 1344 1350 1358 1368 1376 1385 1392 1400 1408 1416 1424 1433 1440 1449 1456 1464 1469 1476 1484 1492 1500 1504 1512 1519 1526 1533 1538 1543 1549 1553 1559 1564